User: anonymous   Login
Location: Kapla
(46.2483°N, 15.0094°E)
Time: 17:53:53
(UTC+00:00)
Language:

COSMO-SKYMED 1 - Orbit

View from above orbital plane
View from above orbital plane
View from above satellite
View from above satellite

Ground track
Ground track

The orbit data is extracted from the following two-line orbital elements,

1 31598U 07023A   21129.21613656  .00000770  00000-0  10333-3 0  9990
2 31598  97.8897 313.6655 0001596  88.2564 271.8906 14.82156754753088
Epoch (UTC): 09 May 2021 05:11:14
Eccentricity: 0.0001596
inclination: 97.8897°
perigee height: 621 km
apogee height: 623 km
right ascension of ascending node: 313.6655°
argument of perigee: 88.2564°
revolutions per day: 14.82156754
mean anomaly at epoch: 271.8906°
orbit number at epoch: 75308

The dashed part of the orbit path shows where the satellite is in the earth's shadow,  

DLR